Theta_e
318 312 308 303 292 289 286 289 292 295 297 302 308 310 311 312 308 301 336 336 345 344 348 349 350 352 351 351 351 351 352 353 353 353 352 352 353 353 353 353 354 355 354 352 352 350 348 348 349
312 311 305 296 288 285 288 292 293 297 303 317 319 321 317 314 329 333 333 343 346 347 347 347 350 350 351 351 350 351 352 352 352 352 352 352 352 353 353 353 352 353 353 351 350 348 347 347 348
311 310 300 292 286 287 289 294 296 302 305 306 314 319 321 321 334 335 341 345 347 346 347 348 349 349 350 350 350 350 350 350 350 350 352 352 352 352 352 351 351 352 353 351 350 348 347 346 345
306 303 297 292 290 293 294 297 299 302 305 312 316 316 325 330 333 339 344 346 345 345 347 345 346 348 350 350 350 350 349 348 348 349 350 351 352 351 350 349 350 352 353 352 351 350 347 343 342
301 297 291 288 290 295 298 300 300 300 306 315 319 318 322 332 342 342 341 343 342 343 345 345 344 347 349 350 350 349 348 347 347 349 349 349 350 350 348 347 349 351 352 352 352 350 345 342 341
299 295 289 287 290 295 297 299 301 307 314 319 319 318 320 333 339 341 340 338 341 340 343 345 347 346 347 348 348 346 346 346 346 347 348 349 348 348 347 347 347 349 350 350 350 348 345 342 341
296 292 289 289 291 293 298 301 301 304 307 307 318 315 319 330 339 342 342 341 341 340 340 341 343 346 345 344 344 343 344 345 345 345 345 346 345 345 346 346 347 348 348 348 348 346 344 342 340
297 294 290 289 291 293 300 302 303 301 302 312 310 314 318 330 341 342 340 336 335 338 339 339 340 341 341 342 340 342 343 343 343 344 343 343 344 344 344 344 345 347 347 347 347 345 343 341 339
299 293 289 290 292 296 300 300 301 301 300 305 310 310 321 330 337 332 328 328 329 331 332 338 339 339 339 343 343 344 345 344 342 343 343 340 343 342 342 342 342 344 345 345 345 343 341 339 338
297 292 293 298 296 299 301 300 303 299 299 304 309 316 322 328 330 326 324 322 322 323 327 331 341 338 338 343 342 343 343 344 344 345 344 343 343 344 343 342 341 342 341 342 342 342 340 339 338
295 295 298 300 301 300 299 300 300 299 296 304 308 312 316 322 323 322 320 320 318 318 321 328 333 333 337 338 337 340 342 341 341 342 342 341 342 341 342 343 343 342 342 339 339 339 340 341 341
296 300 301 300 301 299 299 300 300 297 302 306 311 316 317 320 319 318 315 313 312 313 315 320 322 324 324 324 327 328 328 330 327 325 328 333 338 338 337 339 339 340 339 340 339 340 340 340 339
298 300 301 303 303 302 301 301 300 301 306 311 313 314 315 316 314 314 312 309 307 307 308 312 318 319 319 319 321 322 322 322 322 321 323 324 324 325 328 327 329 331 334 338 338 339 338 337 337
303 302 301 302 302 302 300 301 301 302 308 308 311 309 311 312 311 308 305 303 303 304 304 305 307 311 315 314 315 318 322 322 320 318 319 320 320 320 322 323 323 323 325 328 333 337 337 336 336
302 299 300 301 300 300 301 298 298 303 307 306 306 306 308 307 306 303 301 301 301 302 304 304 305 305 306 306 308 311 313 314 313 314 314 314 314 313 315 315 315 317 320 321 325 328 333 336 336
298 297 293 300 301 301 299 295 300 304 304 301 301 304 303 303 302 300 300 300 300 301 302 303 305 303 303 303 304 306 307 308 308 308 307 309 310 311 308 308 309 311 312 314 315 318 320 321 326
294 290 292 297 301 300 297 297 298 301 302 299 299 300 301 299 298 298 300 299 300 300 301 301 301 301 302 302 302 302 303 303 303 303 303 304 305 307 304 305 305 307 309 309 311 312 313 314 317
290 291 291 293 298 298 296 297 298 298 300 298 297 297 298 297 298 299 299 299 299 299 300 300 300 300 300 300 299 300 300 301 301 301 302 302 302 303 302 302 302 304 305 306 307 308 310 311 313
296 294 293 297 301 297 296 297 299 296 297 295 295 295 295 296 298 299 299 298 298 298 298 299 299 300 299 298 297 296 297 298 299 300 300 300 300 301 300 301 301 302 303 303 306 306 308 309 309
296 294 294 297 299 298 297 298 297 296 296 297 297 295 296 296 297 297 298 297 297 297 297 298 299 299 299 298 298 297 297 297 298 298 298 299 299 300 301 299 298 299 301 300 302 304 307 310 312
296 294 294 294 297 297 295 294 297 297 296 297 298 297 297 297 296 297 297 296 296 296 296 298 298 299 298 298 297 296 296 296 295 295 295 296 297 299 300 300 299 298 299 299 299 301 306 304 307
293 299 297 295 294 290 296 287 295 296 295 295 295 295 294 295 296 297 297 296 295 295 296 298 298 298 298 297 296 295 293 292 293 294 295 295 297 297 299 299 298 298 299 298 299 305 305 305 302
296 300 298 296 293 291 292 288 292 294 294 294 293 293 294 295 295 296 297 296 296 296 297 297 298 297 297 297 296 293 292 292 293 293 294 295 296 297 298 299 300 300 298 298 301 301 301 303 304
302 299 295 294 292 286 292 289 290 294 295 293 293 292 293 294 295 297 297 296 296 296 297 296 296 297 296 295 294 293 292 293 293 294 294 295 296 297 298 301 301 299 298 299 301 300 299 299 300
298 294 286 284 283 283 292 289 291 295 295 294 294 293 293 294 293 295 294 295 295 294 295 295 296 296 296 294 294 293 294 294 294 293 294 294 295 296 297 299 298 296 297 297 297 296 296 297 298
296 296 288 281 281 283 291 285 290 295 295 295 295 294 293 292 293 295 295 295 294 295 295 296 296 296 294 293 293 293 294 294 294 294 294 295 295 296 297 296 295 295 295 295 295 294 295 296 295
296 293 297 288 285 284 287 291 295 292 294 293 291 292 292 292 292 293 294 293 294 294 294 295 296 295 293 292 291 292 292 293 293 294 294 295 296 297 295 294 294 294 294 294 294 293 293 294 294
298 299 288 287 281 280 283 285 287 292 294 292 291 292 293 293 293 293 292 294 293 294 294 295 296 295 292 291 290 291 291 291 292 293 293 294 295 295 294 293 293 293 293 292 292 291 292 291 291
295 292 294 294 289 282 277 281 292 293 293 293 293 293 293 293 293 293 294 294 294 293 295 296 295 293 291 290 290 289 289 290 291 291 292 295 295 294 294 296 295 292 292 294 293 291 291 290 289
297 294 293 286 284 285 280 283 296 294 294 294 294 294 294 295 293 294 294 292 291 293 295 295 294 291 291 290 289 289 289 289 290 291 292 293 294 297 297 296 294 292 293 294 293 292 292 291 290
Wind_Speed
3 2 2 6 6 6 3 4 3 8 4 3 6 5 5 2 4 5 2 5 5 9 10 8 8 10 11 9 11 11 12 13 12 13 13 13 13 13 12 11 10 9 9 8 7 7 7 8 9
2 1 5 3 7 5 6 4 2 4 5 6 4 4 3 1 1 1 1 3 7 7 8 6 7 7 10 11 10 10 10 11 11 12 13 13 13 12 12 11 10 9 9 9 7 7 7 8 8
2 4 5 6 4 3 4 4 4 8 8 3 3 3 1 0 3 2 4 7 10 7 5 6 9 7 7 8 10 9 8 9 9 10 11 12 13 13 11 10 9 9 10 10 9 8 8 8 9
3 6 5 6 0 5 5 3 3 8 3 6 2 2 2 2 1 5 7 6 10 7 6 7 9 9 9 8 9 9 8 7 7 8 8 9 10 10 11 11 10 8 8 8 8 8 7 9 9
5 4 5 4 2 6 5 6 3 3 2 3 2 0 4 5 7 8 7 6 9 7 5 7 8 8 8 7 7 7 7 7 7 7 7 6 7 7 8 8 9 9 9 8 8 7 7 8 9
5 4 5 1 3 5 7 6 2 3 3 1 4 2 3 2 4 6 8 8 8 6 6 6 5 5 4 5 5 4 4 5 5 5 6 6 6 6 7 8 8 8 9 9 9 8 7 8 9
6 4 3 2 3 6 4 7 4 3 4 2 3 4 1 4 6 8 10 8 8 7 6 5 4 4 5 4 3 3 3 4 4 3 3 3 5 5 6 7 9 8 8 8 8 9 8 8 8
6 5 2 3 2 5 5 5 4 2 3 4 2 5 5 4 6 10 12 10 9 8 6 5 5 4 4 4 3 1 2 2 2 2 3 4 5 5 6 7 7 8 8 8 8 8 7 8 7
4 5 2 4 1 6 4 7 3 1 1 4 3 1 3 10 11 12 10 6 5 7 7 5 4 4 4 3 3 4 4 4 3 3 4 2 3 4 4 4 5 8 8 9 8 7 9 9 8
6 4 7 5 3 5 6 3 6 3 1 3 3 5 5 6 9 11 9 7 5 5 5 5 6 5 4 2 3 3 3 4 3 3 4 2 3 5 6 4 5 7 8 9 9 9 9 8 3
3 5 5 4 6 4 5 8 4 3 3 7 9 8 4 9 8 11 6 6 8 4 5 6 8 6 5 5 4 2 2 2 2 3 4 2 2 2 3 2 2 2 5 4 4 5 5 7 6
2 6 5 3 3 1 4 4 7 2 7 7 9 14 9 11 9 9 10 7 6 6 5 6 6 8 8 6 7 7 6 7 6 6 10 8 5 5 4 3 3 3 2 5 6 5 6 8 9
4 4 3 6 6 7 3 8 7 6 3 7 11 8 6 8 8 7 8 7 6 8 6 7 6 9 8 10 7 6 6 7 6 5 9 6 5 4 4 5 6 6 6 4 6 6 7 8 9
1 5 7 7 9 7 8 9 9 5 8 8 8 8 7 9 6 6 7 7 7 6 7 6 7 6 8 9 7 6 5 6 6 7 7 9 6 5 5 5 5 5 5 5 6 6 6 7 7
2 5 7 5 2 5 5 6 8 4 9 11 8 6 7 7 8 6 6 7 6 5 6 8 8 7 10 9 8 6 6 5 7 7 8 8 6 6 4 5 4 5 5 6 5 6 6 7 7
5 3 4 4 3 2 4 7 6 9 13 8 8 6 8 6 5 6 6 6 6 7 8 7 7 8 9 8 6 6 6 6 6 6 5 8 7 7 5 4 2 3 3 4 4 5 5 5 7
5 3 3 8 4 2 0 9 3 2 6 7 4 5 6 6 5 4 6 6 5 6 7 8 7 7 7 6 7 6 7 5 4 4 4 6 6 5 4 4 4 5 4 4 3 4 3 4 6
4 3 2 4 6 4 5 8 2 1 8 10 8 6 6 7 6 5 6 6 6 6 6 7 6 7 6 4 5 5 5 4 4 4 4 6 4 5 4 3 3 3 3 3 3 4 3 3 5
2 2 4 8 8 3 3 6 4 4 5 7 8 9 8 7 6 5 5 6 7 5 6 5 7 3 2 3 4 3 3 2 3 4 5 5 5 5 5 3 3 3 3 4 4 2 7 4 3
4 6 9 7 5 3 6 11 2 7 5 7 13 11 13 9 8 6 6 5 3 6 5 5 6 5 3 2 3 3 2 1 2 3 6 7 7 7 5 4 5 5 3 4 4 3 5 3 1
5 5 6 9 3 4 1 8 2 3 3 3 4 3 5 8 9 6 4 5 5 6 5 4 4 5 4 4 2 3 3 2 2 2 2 4 6 7 6 5 5 5 3 3 4 3 5 4 3
6 9 7 6 1 4 2 5 7 3 4 2 3 5 5 6 6 7 7 5 6 5 3 4 4 5 4 4 4 4 2 2 1 2 3 5 5 6 5 5 5 5 4 4 4 4 3 2 3
9 4 6 3 3 2 1 4 9 3 6 4 6 5 6 7 7 7 7 6 5 5 5 3 2 5 6 3 4 4 3 1 2 2 4 3 4 4 4 4 5 5 4 4 5 4 4 1 3
1 3 5 4 3 2 4 6 6 3 3 4 3 9 11 9 7 7 6 5 5 6 6 6 4 4 4 2 3 4 2 2 3 3 3 3 3 3 3 4 3 4 4 5 5 5 5 4 3
4 5 3 4 2 6 1 1 8 3 2 4 8 9 9 9 8 9 9 9 7 4 3 5 6 5 5 3 2 2 4 3 3 3 3 4 4 3 5 4 5 3 3 4 4 5 5 4 3
2 6 6 6 4 5 5 4 7 2 3 4 5 6 8 7 7 10 11 8 5 7 6 6 6 5 3 2 3 3 3 2 3 3 3 4 3 4 2 2 1 3 5 5 5 3 4 4 3
2 2 2 5 2 2 4 7 8 1 2 4 2 4 8 8 9 11 10 8 9 8 8 6 5 2 2 3 2 4 4 4 4 4 3 3 4 3 3 5 6 6 5 5 6 4 5 5 4
2 3 3 4 3 5 4 4 7 8 7 4 7 9 10 9 11 12 9 9 6 7 6 7 6 5 5 6 5 4 4 3 4 4 6 6 5 5 6 3 4 5 5 6 6 5 5 5 4
3 2 4 5 2 3 4 6 7 6 4 6 8 9 12 12 13 11 9 6 6 5 6 6 6 7 7 6 6 4 4 4 4 4 5 5 4 5 5 3 3 5 4 3 4 5 6 5 5
3 1 3 5 4 6 5 8 7 5 2 4 9 9 9 12 11 9 7 6 6 6 6 7 9 7 7 6 6 4 4 4 5 5 5 6 5 5 4 4 4 5 6 3 7 7 6 7 8
Wind_Direction
99 62 62 43 55 59 345 316 221 312 309 264 113 134 181 158 156 216 319 174 131 139 138 169 164 141 131 125 119 124 127 127 127 125 127 131 131 128 131 132 134 138 134 127 116 112 112 112 113
122 262 44 80 79 50 291 244 263 227 270 338 56 60 48 13 117 249 173 131 111 128 128 137 148 135 132 132 128 126 130 126 130 134 137 138 136 138 140 140 137 135 137 136 136 128 124 125 119
129 37 78 87 106 144 236 232 296 305 300 24 45 70 322 97 18 152 21 107 101 94 112 136 143 132 129 127 123 122 121 125 132 138 144 147 148 147 145 143 143 144 151 157 153 145 144 136 130
51 9 36 78 39 247 221 243 215 313 346 117 131 35 10 3 86 102 98 105 104 106 118 136 145 148 148 140 133 132 128 130 134 138 150 150 149 149 149 151 155 157 164 164 159 157 157 149 144
36 53 55 91 255 268 257 266 212 265 303 55 64 346 48 35 75 103 122 128 132 140 146 148 149 152 152 139 130 133 139 142 149 149 147 141 142 152 156 166 171 173 172 174 165 168 173 163 158
40 94 56 116 257 254 278 243 215 153 47 86 92 107 85 67 51 63 72 60 64 63 53 62 77 74 129 138 140 137 145 149 149 154 159 165 167 172 176 185 194 196 191 186 181 183 191 186 180
98 74 173 214 262 295 284 311 62 101 96 302 167 79 123 62 67 83 80 72 70 69 72 72 78 102 101 105 139 160 166 174 177 175 175 195 195 196 199 208 211 213 216 206 194 195 201 211 203
105 85 53 255 261 287 329 356 316 335 142 121 56 170 188 127 110 92 76 66 65 66 71 64 62 54 32 13 354 250 210 205 211 221 231 236 235 223 213 222 236 235 232 230 221 210 209 222 215
123 62 315 262 254 296 322 357 266 344 250 64 35 213 81 123 114 89 81 62 54 50 46 54 57 57 60 56 27 17 17 360 344 305 271 288 283 273 264 247 237 252 252 248 239 223 218 220 223
95 118 216 217 259 288 298 293 298 155 172 68 83 35 94 109 119 114 114 104 80 60 48 48 74 74 86 75 73 66 51 43 19 358 336 326 312 291 279 258 258 265 262 253 246 241 225 225 231
164 178 206 263 245 260 295 319 279 275 229 201 180 163 140 122 116 120 107 113 124 122 76 54 79 62 79 84 108 93 87 73 55 40 5 336 332 301 293 280 290 287 278 269 268 257 244 238 230
324 253 217 261 260 230 274 296 308 238 273 296 152 153 145 142 137 130 121 105 80 71 75 64 62 78 66 58 61 68 65 69 65 48 55 46 17 9 339 315 338 302 269 271 252 243 241 237 238
198 254 238 254 262 252 286 257 230 258 15 86 109 97 124 126 112 92 91 79 89 84 61 50 84 96 89 86 90 79 87 90 94 74 59 63 75 23 36 46 34 20 349 289 253 245 243 244 240
235 275 264 268 250 234 196 243 142 249 132 105 127 123 120 108 98 92 95 108 94 91 75 63 57 53 81 86 66 60 53 59 64 65 61 56 46 61 24 29 13 16 344 343 321 296 243 239 234
269 305 318 252 265 253 168 298 228 180 147 142 138 120 97 87 85 99 109 102 110 93 95 75 65 51 64 64 67 69 67 65 59 50 41 45 48 48 359 43 4 352 345 334 326 329 321 260 238
349 53 339 291 344 305 123 271 299 167 145 150 142 141 116 88 100 98 101 105 100 99 87 74 80 78 80 79 71 73 68 63 58 54 46 43 32 24 12 27 357 336 338 318 335 333 332 340 325
8 261 274 314 357 292 349 292 303 98 142 133 135 114 114 101 83 96 98 99 102 97 96 88 82 78 84 95 92 76 77 61 61 61 48 34 28 21 23 7 350 343 333 340 339 327 316 317 315
235 233 275 274 303 0 301 281 59 19 160 164 143 141 139 146 163 147 120 112 104 89 86 86 79 87 88 76 71 62 61 56 50 37 37 30 11 3 8 360 355 347 342 334 338 329 317 281 293
11 269 276 272 274 279 241 275 300 143 128 163 166 163 163 172 170 148 141 129 116 104 105 95 100 90 100 68 89 77 76 49 38 23 13 2 347 342 344 342 343 345 347 320 313 294 344 324 311
234 283 286 291 274 183 287 282 298 176 213 201 180 173 172 171 169 162 157 166 171 142 116 107 99 82 56 65 81 96 116 106 77 1 350 343 340 331 319 335 344 339 333 331 326 342 336 269 331
224 198 244 240 347 274 14 311 279 262 335 184 190 201 186 175 162 165 163 158 147 145 149 135 114 98 69 61 81 68 60 36 11 344 323 320 322 311 313 317 337 325 328 311 303 294 335 326 319
273 201 211 240 137 262 128 260 306 345 284 256 164 171 172 172 177 180 175 172 177 162 139 122 127 109 98 80 78 83 116 51 347 322 303 305 303 306 319 322 320 310 309 306 297 311 313 314 320
236 196 194 197 168 10 1 95 267 7 310 268 210 202 199 195 179 181 189 188 195 153 140 113 136 108 72 76 84 83 62 270 280 271 298 307 303 309 323 322 318 317 313 302 293 317 330 283 313
204 119 56 49 97 163 219 140 281 253 238 308 211 205 200 191 179 188 198 182 196 180 179 165 163 87 87 113 76 77 65 340 355 339 336 327 308 319 320 346 331 327 330 337 336 327 326 310 289
110 77 326 334 354 229 102 66 232 230 200 265 276 226 194 186 177 189 192 201 205 192 194 162 165 174 182 122 113 60 30 12 350 334 322 318 314 318 331 358 12 338 306 319 327 323 314 308 306
139 163 176 221 211 245 313 251 251 205 292 319 295 198 175 174 193 199 202 202 182 191 198 201 190 183 100 24 8 358 323 263 243 238 242 247 228 246 248 40 25 13 12 353 337 314 306 306 305
140 141 196 101 35 54 252 300 317 172 299 20 359 162 202 196 194 201 209 195 191 190 203 199 184 136 196 251 271 246 243 243 254 284 284 275 291 317 6 33 14 6 2 351 338 338 341 341 326
100 144 60 7 343 280 268 267 239 287 315 313 255 224 224 218 205 209 206 200 195 201 170 169 173 188 212 233 243 253 285 321 320 313 309 314 316 328 320 360 356 344 352 357 348 345 321 312 310
338 54 66 99 153 252 288 249 218 238 276 269 266 235 230 221 218 207 207 199 198 147 169 174 182 203 213 226 240 265 304 311 302 286 288 279 289 278 260 280 308 305 291 322 311 286 285 309 305
305 183 120 127 213 237 212 258 245 267 249 220 263 257 242 229 213 201 196 178 181 203 167 205 208 194 218 227 229 253 274 292 285 275 274 288 289 289 269 273 262 254 260 287 282 271 283 299 299